Theta_e
288 288 288 289 289 287 288 288 289 290 292 293 293 293 293 293 294 294 294 294 295 295 296 296 297 298 298
287 287 288 288 286 286 287 287 287 288 291 291 292 292 292 292 292 292 292 292 292 293 294 295 296 296 297
285 287 287 286 285 286 286 286 286 287 288 289 290 290 290 290 291 290 290 290 291 292 293 294 295 295 297
285 285 285 285 285 283 284 286 285 286 286 287 288 288 288 288 288 287 288 289 291 292 292 291 292 293 294
283 283 284 283 282 283 282 283 285 285 284 285 285 285 285 286 285 286 288 289 290 291 291 292 291 292 292
283 282 282 282 283 283 282 280 279 284 282 282 284 283 284 285 286 287 288 289 290 291 292 290 290 291 291
283 283 282 283 283 282 281 281 280 282 281 280 283 282 284 284 286 286 288 288 288 288 288 289 289 290 290
285 284 284 284 284 283 282 280 281 282 282 277 282 281 283 284 285 285 288 287 287 287 287 287 288 288 289
286 285 285 285 285 282 279 278 277 278 281 279 280 279 281 281 283 284 285 285 285 286 286 286 286 287 286
282 282 282 282 283 282 280 277 277 276 280 277 278 278 276 280 282 282 282 283 284 284 285 285 285 284 284
281 281 281 281 282 282 282 280 278 276 280 279 278 278 276 277 279 280 281 281 281 282 283 283 284 284 282
280 280 280 280 281 282 282 282 282 280 281 281 277 276 275 274 274 279 279 280 281 280 281 282 283 284 284
279 279 280 281 281 281 281 281 281 281 280 280 279 278 276 275 274 275 277 278 280 280 280 280 280 281 280
279 280 281 280 279 280 278 278 277 277 279 279 279 278 276 276 276 274 277 275 279 279 279 280 280 281 281
280 279 279 279 278 279 278 277 274 274 275 277 278 278 277 276 273 275 276 277 278 279 278 278 279 280 281
279 278 277 276 276 277 277 275 273 273 274 275 275 274 275 277 278 275 276 277 279 279 278 277 277 279 281
277 277 276 275 275 274 274 273 273 273 274 275 273 272 270 270 276 279 276 277 277 277 278 278 276 278 280
Wind_Speed
2 3 4 1 1 2 4 3 4 10 11 12 8 9 11 16 15 15 16 15 16 17 18 18 20 21 21
3 2 1 1 2 3 3 3 5 8 11 8 8 11 16 16 15 15 15 15 17 17 17 19 20 20 20
4 1 0 1 2 3 4 4 5 11 7 6 11 15 15 14 14 14 15 17 16 17 18 17 18 19 20
4 2 1 1 2 4 5 4 6 5 3 8 14 14 13 11 14 16 15 15 17 16 13 13 16 18 20
3 2 1 1 3 3 5 8 7 1 5 7 8 7 6 9 11 13 17 16 15 14 10 15 20 20 20
2 2 1 2 2 4 5 6 5 3 10 11 7 8 6 7 17 17 15 13 11 13 17 20 22 20 20
4 2 1 1 3 4 5 6 7 8 8 9 8 8 8 11 18 15 10 11 17 18 19 20 21 21 22
4 3 2 4 4 2 4 6 8 6 4 7 5 8 10 12 16 11 9 18 18 19 19 22 22 21 21
4 3 5 5 3 3 4 6 7 7 5 4 7 11 10 11 6 10 15 20 22 19 23 22 21 20 14
2 3 4 3 5 3 3 4 5 5 2 6 8 8 6 4 6 11 9 18 19 22 21 19 16 10 11
2 2 3 4 3 4 5 5 5 6 8 7 6 8 6 11 8 11 11 11 12 13 17 16 18 17 12
3 4 4 3 4 5 6 6 7 10 11 9 6 8 9 10 11 9 11 11 10 11 9 13 19 19 18
3 3 3 4 5 5 6 7 8 10 8 9 8 9 8 9 11 11 13 9 10 8 9 10 11 11 11
3 4 4 4 5 5 6 6 7 8 9 8 9 9 8 9 10 12 11 8 9 10 10 11 11 11 10
4 5 5 5 6 5 5 6 7 9 9 8 8 8 9 12 9 10 10 10 10 10 11 10 10 12 11
4 4 5 6 6 6 6 7 8 8 9 8 8 8 7 6 13 10 10 10 10 11 12 11 11 11 11
4 4 4 5 7 7 7 7 8 8 8 8 7 7 9 10 8 12 9 11 11 11 10 10 12 12 11
Wind_Direction
127 117 179 129 78 343 326 311 346 328 326 322 319 315 324 326 319 316 316 319 320 317 312 307 306 308 310
122 146 188 55 321 286 320 342 321 320 330 330 326 327 326 319 315 316 312 319 314 305 301 304 305 307 304
104 79 115 260 287 298 314 328 319 320 345 341 330 321 320 317 319 318 315 309 299 297 304 308 304 307 302
98 147 205 222 304 320 330 316 327 338 356 328 318 313 315 316 318 313 310 300 298 297 300 316 317 310 306
115 146 188 4 329 334 311 325 334 42 327 323 312 312 305 305 312 307 305 299 294 286 301 319 317 307 300
150 103 119 283 293 322 327 340 338 130 343 319 323 310 307 311 320 321 308 309 312 323 309 319 311 307 303
118 134 150 281 291 309 327 318 301 317 320 301 319 309 320 316 322 315 305 351 336 326 320 314 309 308 304
104 127 235 266 248 313 312 309 305 306 305 282 315 306 320 307 313 304 290 335 327 322 320 321 312 305 306
102 29 354 342 331 322 337 339 327 320 343 301 319 317 310 295 314 300 308 323 319 316 321 318 312 313 311
4 1 359 341 339 347 313 303 317 313 337 323 313 331 318 279 308 309 304 309 311 313 315 316 312 312 302
336 348 358 354 324 303 270 259 273 271 293 310 299 307 286 296 293 303 303 308 309 309 313 307 309 311 306
339 357 337 313 316 304 300 283 265 269 292 294 280 295 292 292 294 306 307 300 298 301 304 299 305 307 305
324 292 298 318 300 305 313 287 292 288 294 294 282 284 282 281 289 302 303 306 302 287 298 300 301 304 303
289 315 310 308 306 316 310 318 316 307 310 292 280 285 283 283 292 289 289 290 296 297 297 294 294 290 285
290 296 296 304 301 319 320 318 304 304 304 304 298 285 278 276 280 273 287 289 293 296 301 292 289 288 287
287 297 301 306 311 315 310 299 294 296 299 303 304 308 296 270 252 268 279 285 290 295 294 289 290 289 289
292 285 295 303 308 299 295 286 286 292 289 289 291 300 306 301 291 270 279 288 294 290 287 285 290 289 290